RYR98XK EBCI-LIRP

Flight info

Callsign RYR98XK
Flight time 1h 25m
Altitude 37000
Route RITAX UT27 ROUSY DCT GTQ DCT DEVDI DCT ODINA/N0342F190 DCT SRN DCT OSBUL DCT EKPAL DCT MIVKI
Aircraft B738/M-SDE3FGILRWY/SB1

Departure

Time 2026-04-27 12:19
Airport Brussels South Charleroi Airport (EBCI)

Arrival

Time 2026-04-27 13:44
Airport Pisa International Airport (LIRP)
Time Latitude Longitude Altitude Speed Heading
2026-04-27 11:57 50.46737 4.46636 585 ft 0 kts 335°
2026-04-27 12:09 50.46736 4.46637 612 ft 1 kts 335°
2026-04-27 12:09 50.46716 4.46652 586 ft 3 kts 335°
2026-04-27 12:09 50.46697 4.46668 586 ft 4 kts 306°
2026-04-27 12:09 50.46693 4.46701 587 ft 4 kts 245°
2026-04-27 12:10 50.46701 4.46728 587 ft 0 kts 245°
2026-04-27 12:12 50.46697 4.46712 587 ft 4 kts 245°
2026-04-27 12:12 50.46680 4.46654 587 ft 7 kts 245°
2026-04-27 12:12 50.46661 4.46589 587 ft 7 kts 245°
2026-04-27 12:12 50.46638 4.46533 588 ft 6 kts 215°
2026-04-27 12:13 50.46611 4.46533 589 ft 3 kts 162°
2026-04-27 12:13 50.46591 4.46546 590 ft 3 kts 157°
2026-04-27 12:13 50.46570 4.46560 590 ft 4 kts 160°
2026-04-27 12:13 50.46529 4.46534 589 ft 10 kts 236°
2026-04-27 12:14 50.46491 4.46407 588 ft 15 kts 245°
2026-04-27 12:14 50.46446 4.46251 590 ft 17 kts 245°
2026-04-27 12:14 50.46394 4.46072 591 ft 19 kts 246°
2026-04-27 12:14 50.46342 4.45891 596 ft 18 kts 245°
2026-04-27 12:15 50.46291 4.45717 596 ft 17 kts 245°
2026-04-27 12:15 50.46242 4.45548 599 ft 17 kts 245°
2026-04-27 12:15 50.46195 4.45386 597 ft 16 kts 245°
2026-04-27 12:15 50.46149 4.45227 598 ft 17 kts 245°
2026-04-27 12:16 50.46096 4.45047 595 ft 19 kts 245°
2026-04-27 12:16 50.46043 4.44863 596 ft 18 kts 245°
2026-04-27 12:16 50.45991 4.44685 596 ft 18 kts 245°
2026-04-27 12:16 50.45940 4.44514 599 ft 17 kts 243°
2026-04-27 12:17 50.45876 4.44363 598 ft 16 kts 232°
2026-04-27 12:17 50.45808 4.44225 597 ft 16 kts 232°
2026-04-27 12:17 50.45738 4.44085 593 ft 17 kts 232°
2026-04-27 12:17 50.45672 4.43981 593 ft 11 kts 193°
2026-04-27 12:18 50.45626 4.44043 593 ft 6 kts 90°
2026-04-27 12:18 50.45648 4.44128 593 ft 20 kts 65°
2026-04-27 12:18 50.45807 4.44673 598 ft 89 kts 65°
2026-04-27 12:18 50.46146 4.45841 595 ft 146 kts 65°
2026-04-27 12:19 50.46608 4.47403 1083 ft 157 kts 65°
2026-04-27 12:19 50.47119 4.48929 1800 ft 164 kts 45°
2026-04-27 12:19 50.48192 4.49744 2219 ft 189 kts 15°
2026-04-27 12:19 50.49372 4.50834 2442 ft 212 kts 52°
2026-04-27 12:20 50.50119 4.52916 2805 ft 224 kts 59°
2026-04-27 12:20 50.50998 4.55092 3026 ft 247 kts 55°
2026-04-27 12:20 50.52023 4.57336 3638 ft 258 kts 53°
2026-04-27 12:20 50.53084 4.59624 4516 ft 260 kts 54°
2026-04-27 12:21 50.54184 4.61912 5288 ft 266 kts 52°
2026-04-27 12:21 50.55324 4.64216 6013 ft 272 kts 52°
2026-04-27 12:21 50.56500 4.66585 6751 ft 278 kts 52°
2026-04-27 12:21 50.57698 4.69005 7504 ft 282 kts 52°
2026-04-27 12:22 50.58902 4.71442 8281 ft 284 kts 51°
2026-04-27 12:22 50.60123 4.73919 8987 ft 290 kts 51°
2026-04-27 12:22 50.61363 4.76437 9772 ft 291 kts 51°
2026-04-27 12:22 50.62609 4.78975 10500 ft 296 kts 51°
2026-04-27 12:23 50.63910 4.81623 10758 ft 317 kts 51°
2026-04-27 12:23 50.65159 4.84626 11015 ft 338 kts 67°
2026-04-27 12:23 50.65544 4.88313 11479 ft 349 kts 95°
2026-04-27 12:23 50.64839 4.91947 12152 ft 350 kts 122°
2026-04-27 12:24 50.63295 4.94903 12941 ft 350 kts 136°
2026-04-27 12:24 50.61562 4.97641 13639 ft 355 kts 137°
2026-04-27 12:24 50.59778 5.00374 14308 ft 361 kts 138°
2026-04-27 12:24 50.57969 5.03138 14943 ft 366 kts 138°
2026-04-27 12:25 50.56135 5.05954 15606 ft 370 kts 137°
2026-04-27 12:25 50.54309 5.08776 16245 ft 376 kts 137°
2026-04-27 12:25 50.52439 5.11684 16876 ft 381 kts 137°
2026-04-27 12:25 50.50544 5.14638 17503 ft 386 kts 137°
2026-04-27 12:26 50.48627 5.17631 18132 ft 392 kts 136°
2026-04-27 12:26 50.46685 5.20665 18741 ft 396 kts 136°
2026-04-27 12:26 50.44719 5.23734 19324 ft 400 kts 137°
2026-04-27 12:26 50.42741 5.26820 19942 ft 402 kts 137°
2026-04-27 12:27 50.40750 5.29923 20539 ft 405 kts 137°
2026-04-27 12:27 50.38753 5.33031 21111 ft 408 kts 137°
2026-04-27 12:27 50.36731 5.36172 21673 ft 412 kts 137°
2026-04-27 12:27 50.34686 5.39344 22243 ft 415 kts 137°
2026-04-27 12:28 50.32616 5.42553 22800 ft 418 kts 137°
2026-04-27 12:28 50.30536 5.45772 23352 ft 421 kts 137°
2026-04-27 12:28 50.28444 5.49005 23861 ft 424 kts 137°
2026-04-27 12:28 50.26343 5.52249 24367 ft 425 kts 138°
2026-04-27 12:29 50.24225 5.55514 24783 ft 430 kts 138°
2026-04-27 12:29 50.22079 5.58817 25163 ft 434 kts 138°
2026-04-27 12:29 50.19921 5.62135 25574 ft 437 kts 138°
2026-04-27 12:29 50.17741 5.65483 26015 ft 440 kts 139°
2026-04-27 12:30 50.15551 5.68844 26426 ft 443 kts 139°
2026-04-27 12:30 50.13349 5.72219 26820 ft 446 kts 139°
2026-04-27 12:30 50.11123 5.75623 27196 ft 449 kts 139°
2026-04-27 12:30 50.08871 5.79015 27561 ft 451 kts 143°
2026-04-27 12:31 50.06264 5.81646 27897 ft 444 kts 162°
2026-04-27 12:31 50.03363 5.83209 28322 ft 440 kts 167°
2026-04-27 12:31 50.00434 5.84660 28730 ft 442 kts 167°
2026-04-27 12:31 49.97488 5.86112 29060 ft 446 kts 167°
2026-04-27 12:32 49.94524 5.87588 29363 ft 449 kts 167°
2026-04-27 12:32 49.91580 5.89075 29723 ft 451 kts 167°
2026-04-27 12:32 49.88594 5.90598 30084 ft 453 kts 167°
2026-04-27 12:32 49.85585 5.92140 30381 ft 456 kts 167°
2026-04-27 12:33 49.82565 5.93691 30647 ft 459 kts 167°
2026-04-27 12:33 49.79525 5.95252 30929 ft 460 kts 167°
2026-04-27 12:33 49.76475 5.96816 31236 ft 462 kts 167°
2026-04-27 12:33 49.73419 5.98380 31542 ft 462 kts 167°
2026-04-27 12:34 49.70369 5.99939 31931 ft 461 kts 167°
2026-04-27 12:34 49.67326 6.01493 32360 ft 459 kts 167°
2026-04-27 12:34 49.64299 6.03035 32775 ft 457 kts 167°
2026-04-27 12:34 49.61278 6.04571 33134 ft 457 kts 167°
2026-04-27 12:35 49.58261 6.06102 33441 ft 456 kts 167°
2026-04-27 12:35 49.55245 6.07631 33781 ft 456 kts 167°
2026-04-27 12:35 49.52236 6.09156 34124 ft 455 kts 167°
2026-04-27 12:35 49.49240 6.10772 34433 ft 458 kts 162°
2026-04-27 12:36 49.46397 6.13010 34689 ft 464 kts 153°
2026-04-27 12:36 49.43768 6.15960 34949 ft 469 kts 146°
2026-04-27 12:36 49.41246 6.19131 35232 ft 468 kts 144°
2026-04-27 12:36 49.38767 6.22285 35498 ft 468 kts 144°
2026-04-27 12:37 49.36252 6.25471 35752 ft 468 kts 145°
2026-04-27 12:37 49.33731 6.28634 35993 ft 467 kts 145°
2026-04-27 12:37 49.31197 6.31784 36227 ft 468 kts 145°
2026-04-27 12:37 49.28658 6.34919 36491 ft 467 kts 145°
2026-04-27 12:38 49.26174 6.37972 36778 ft 465 kts 145°
2026-04-27 12:38 49.23653 6.41064 37048 ft 464 kts 145°
2026-04-27 12:38 49.21114 6.44175 37203 ft 466 kts 145°
2026-04-27 12:39 49.16012 6.50411 37193 ft 469 kts 145°
2026-04-27 12:39 49.10922 6.56626 37156 ft 464 kts 145°
2026-04-27 12:40 49.05888 6.62756 37184 ft 462 kts 146°
2026-04-27 12:40 49.01711 6.67828 37191 ft 461 kts 146°
2026-04-27 12:41 48.96441 6.73279 37176 ft 453 kts 160°
2026-04-27 12:41 48.90710 6.77147 37183 ft 452 kts 161°
2026-04-27 12:42 48.84961 6.80958 37175 ft 453 kts 161°
2026-04-27 12:42 48.79201 6.84829 37190 ft 454 kts 161°
2026-04-27 12:43 48.73409 6.88754 37185 ft 455 kts 161°
2026-04-27 12:43 48.67612 6.92682 37175 ft 456 kts 160°
2026-04-27 12:44 48.61806 6.96606 37183 ft 457 kts 160°
2026-04-27 12:44 48.55980 7.00531 37169 ft 458 kts 160°
2026-04-27 12:45 48.50178 7.04430 37184 ft 459 kts 161°
2026-04-27 12:45 48.44331 7.08349 37180 ft 460 kts 161°
2026-04-27 12:46 48.38484 7.12259 37161 ft 458 kts 160°
2026-04-27 12:46 48.32648 7.16152 37169 ft 457 kts 161°
2026-04-27 12:47 48.26833 7.20021 37156 ft 456 kts 161°
2026-04-27 12:47 48.21052 7.23856 37169 ft 456 kts 161°
2026-04-27 12:48 48.15229 7.27710 37160 ft 457 kts 160°
2026-04-27 12:48 48.09413 7.31550 37152 ft 456 kts 160°
2026-04-27 12:49 48.03602 7.35378 37155 ft 455 kts 160°
2026-04-27 12:49 47.97805 7.39188 37143 ft 455 kts 160°
2026-04-27 12:50 47.92012 7.42984 37161 ft 454 kts 160°
2026-04-27 12:50 47.86262 7.46744 37163 ft 454 kts 160°
2026-04-27 12:51 47.80474 7.50520 37161 ft 454 kts 160°
2026-04-27 12:51 47.74674 7.54295 37154 ft 455 kts 160°
2026-04-27 12:52 47.68900 7.58219 37166 ft 457 kts 158°
2026-04-27 12:52 47.63187 7.62285 37160 ft 458 kts 158°
2026-04-27 12:53 47.54539 7.68414 37162 ft 459 kts 158°
2026-04-27 12:53 47.48767 7.72463 37151 ft 459 kts 158°
2026-04-27 12:54 47.42991 7.76496 37161 ft 459 kts 158°
2026-04-27 12:54 47.37212 7.80522 37155 ft 459 kts 158°
2026-04-27 12:55 47.31435 7.84537 37134 ft 459 kts 158°
2026-04-27 12:55 47.25655 7.88545 37142 ft 458 kts 158°
2026-04-27 12:56 47.19885 7.92536 37149 ft 458 kts 158°
2026-04-27 12:56 47.14152 7.96492 37140 ft 458 kts 158°
2026-04-27 12:57 47.08347 8.00488 37135 ft 458 kts 158°
2026-04-27 12:57 47.02616 8.04424 37127 ft 458 kts 158°
2026-04-27 12:58 46.96845 8.08377 37141 ft 458 kts 158°
2026-04-27 12:58 46.91037 8.12347 37125 ft 458 kts 158°
2026-04-27 12:59 46.85304 8.16256 37125 ft 457 kts 158°
2026-04-27 12:59 46.79529 8.20184 37129 ft 458 kts 157°
2026-04-27 13:00 46.73756 8.24101 37130 ft 458 kts 157°
2026-04-27 13:00 46.67977 8.28014 37141 ft 458 kts 158°
2026-04-27 13:01 46.62195 8.31918 37149 ft 459 kts 157°
2026-04-27 13:01 46.56395 8.35826 37140 ft 460 kts 157°
2026-04-27 13:02 46.50589 8.39729 37150 ft 460 kts 157°
2026-04-27 13:02 46.44776 8.43628 37136 ft 460 kts 157°
2026-04-27 13:03 46.38961 8.47519 37138 ft 460 kts 157°
2026-04-27 13:03 46.33148 8.51398 37127 ft 460 kts 157°
2026-04-27 13:04 46.27339 8.55267 37108 ft 460 kts 157°
2026-04-27 13:04 46.21524 8.59132 37099 ft 457 kts 157°
2026-04-27 13:05 46.15739 8.62968 37097 ft 457 kts 157°
2026-04-27 13:05 46.09990 8.66789 37089 ft 459 kts 155°
2026-04-27 13:06 46.04298 8.71129 37086 ft 460 kts 152°
2026-04-27 13:06 45.98735 8.75593 37090 ft 461 kts 152°
2026-04-27 13:07 45.93102 8.80055 37076 ft 462 kts 152°
2026-04-27 13:07 45.87446 8.84475 37082 ft 463 kts 152°
2026-04-27 13:08 45.81773 8.88888 37073 ft 463 kts 152°
2026-04-27 13:08 45.76098 8.93296 37087 ft 463 kts 152°
2026-04-27 13:09 45.70437 8.97685 37081 ft 462 kts 152°
2026-04-27 13:09 45.64891 9.02307 37088 ft 461 kts 143°
2026-04-27 13:10 45.60344 9.08621 37084 ft 459 kts 131°
2026-04-27 13:10 45.56105 9.15434 37075 ft 458 kts 131°
2026-04-27 13:11 45.51862 9.22195 37075 ft 457 kts 131°
2026-04-27 13:11 45.47594 9.28906 37075 ft 456 kts 131°
2026-04-27 13:12 45.43319 9.35580 37012 ft 456 kts 131°
2026-04-27 13:12 45.41176 9.38918 36748 ft 454 kts 131°
2026-04-27 13:12 45.39061 9.42208 36401 ft 448 kts 131°
2026-04-27 13:13 45.36967 9.45462 36043 ft 443 kts 131°
2026-04-27 13:13 45.34893 9.48683 35653 ft 440 kts 131°
2026-04-27 13:13 45.32831 9.51882 35269 ft 437 kts 131°
2026-04-27 13:13 45.30785 9.55052 34885 ft 434 kts 131°
2026-04-27 13:14 45.28753 9.58197 34523 ft 431 kts 131°
2026-04-27 13:14 45.26732 9.61322 34128 ft 429 kts 131°
2026-04-27 13:14 45.24720 9.64430 33697 ft 426 kts 131°
2026-04-27 13:14 45.22720 9.67514 33296 ft 423 kts 131°
2026-04-27 13:15 45.20734 9.70575 32902 ft 420 kts 132°
2026-04-27 13:15 45.18762 9.73611 32546 ft 417 kts 132°
2026-04-27 13:15 45.16802 9.76624 32184 ft 414 kts 132°
2026-04-27 13:15 45.14857 9.79611 31826 ft 411 kts 132°
2026-04-27 13:16 45.12926 9.82573 31479 ft 408 kts 132°
2026-04-27 13:16 45.11005 9.85517 31130 ft 406 kts 132°
2026-04-27 13:16 45.09094 9.88443 30793 ft 403 kts 132°
2026-04-27 13:16 45.07194 9.91348 30448 ft 401 kts 132°
2026-04-27 13:17 45.05303 9.94238 30093 ft 399 kts 132°
2026-04-27 13:17 45.03424 9.97106 29697 ft 396 kts 132°
2026-04-27 13:17 45.01557 9.99952 29353 ft 393 kts 132°
2026-04-27 13:17 44.99707 10.02771 28964 ft 390 kts 132°
2026-04-27 13:18 44.97870 10.05565 28632 ft 386 kts 132°
2026-04-27 13:18 44.96047 10.08336 28269 ft 384 kts 132°
2026-04-27 13:18 44.94241 10.11080 27929 ft 380 kts 132°
2026-04-27 13:18 44.92441 10.13810 27567 ft 378 kts 132°
2026-04-27 13:19 44.90656 10.16517 27228 ft 375 kts 132°
2026-04-27 13:19 44.88886 10.19198 26885 ft 373 kts 132°
2026-04-27 13:19 44.87123 10.21865 26547 ft 370 kts 133°
2026-04-27 13:19 44.85371 10.24512 26211 ft 368 kts 133°
2026-04-27 13:20 44.83437 10.26835 25840 ft 366 kts 153°
2026-04-27 13:20 44.81056 10.27956 25574 ft 359 kts 174°
2026-04-27 13:20 44.78597 10.27954 25317 ft 351 kts 192°
2026-04-27 13:20 44.76237 10.27155 25030 ft 347 kts 197°
2026-04-27 13:21 44.73913 10.26234 24702 ft 346 kts 198°
2026-04-27 13:21 44.71603 10.25296 24378 ft 345 kts 198°
2026-04-27 13:21 44.70077 10.24680 24171 ft 344 kts 198°
2026-04-27 13:21 44.67004 10.23460 23748 ft 342 kts 197°
2026-04-27 13:22 44.65484 10.22865 23512 ft 342 kts 197°
2026-04-27 13:22 44.63195 10.21977 23143 ft 341 kts 197°
2026-04-27 13:22 44.60914 10.21097 22800 ft 339 kts 197°
2026-04-27 13:22 44.58643 10.20225 22464 ft 337 kts 197°
2026-04-27 13:23 44.56390 10.19360 22144 ft 335 kts 197°
2026-04-27 13:23 44.54152 10.18502 21835 ft 333 kts 197°
2026-04-27 13:23 44.51921 10.17648 21519 ft 331 kts 197°
2026-04-27 13:23 44.49703 10.16800 21211 ft 330 kts 197°
2026-04-27 13:24 44.47494 10.15965 20907 ft 328 kts 196°
2026-04-27 13:24 44.45294 10.15175 20623 ft 325 kts 196°
2026-04-27 13:24 44.43102 10.14403 20307 ft 324 kts 195°
2026-04-27 13:24 44.40919 10.13637 20005 ft 323 kts 195°
2026-04-27 13:25 44.38746 10.12872 19699 ft 322 kts 196°
2026-04-27 13:25 44.36580 10.12108 19393 ft 321 kts 195°
2026-04-27 13:25 44.34412 10.11342 19081 ft 321 kts 195°
2026-04-27 13:25 44.32249 10.10577 18775 ft 321 kts 195°
2026-04-27 13:26 44.30085 10.09812 18459 ft 321 kts 195°
2026-04-27 13:26 44.27925 10.09050 18105 ft 320 kts 195°
2026-04-27 13:26 44.25769 10.08289 17772 ft 319 kts 195°
2026-04-27 13:26 44.23620 10.07564 17445 ft 318 kts 190°
2026-04-27 13:27 44.21420 10.07706 17139 ft 318 kts 165°
2026-04-27 13:27 44.19377 10.08710 16865 ft 315 kts 158°
2026-04-27 13:27 44.17360 10.09908 16551 ft 315 kts 157°
2026-04-27 13:27 44.15362 10.11136 16231 ft 314 kts 157°
2026-04-27 13:28 44.13365 10.12358 15925 ft 313 kts 157°
2026-04-27 13:28 44.11372 10.13562 15628 ft 312 kts 157°
2026-04-27 13:28 44.09383 10.14750 15332 ft 310 kts 157°
2026-04-27 13:28 44.07400 10.15926 15033 ft 309 kts 157°
2026-04-27 13:29 44.05421 10.17094 14747 ft 308 kts 157°
2026-04-27 13:29 44.03452 10.18253 14448 ft 308 kts 157°
2026-04-27 13:29 44.01481 10.19411 14138 ft 307 kts 157°
2026-04-27 13:29 43.99518 10.20563 13833 ft 306 kts 157°
2026-04-27 13:30 43.97557 10.21712 13518 ft 305 kts 157°
2026-04-27 13:30 43.95599 10.22858 13198 ft 305 kts 157°
2026-04-27 13:30 43.93632 10.23900 12927 ft 302 kts 168°
2026-04-27 13:30 43.91564 10.23904 12647 ft 298 kts 195°
2026-04-27 13:31 43.89706 10.22714 12417 ft 294 kts 212°
2026-04-27 13:31 43.87808 10.21725 12126 ft 296 kts 183°
2026-04-27 13:31 43.85816 10.22285 11894 ft 295 kts 150°
2026-04-27 13:31 43.84310 10.24172 11663 ft 294 kts 129°
2026-04-27 13:32 43.82928 10.26261 11433 ft 295 kts 136°
2026-04-27 13:32 43.81410 10.28183 11194 ft 295 kts 139°
2026-04-27 13:32 43.79846 10.30028 10948 ft 296 kts 140°
2026-04-27 13:32 43.78253 10.31842 10690 ft 296 kts 141°
2026-04-27 13:33 43.76666 10.33616 10446 ft 294 kts 141°
2026-04-27 13:33 43.75068 10.35383 10202 ft 291 kts 141°
2026-04-27 13:33 43.73493 10.37116 9957 ft 288 kts 141°
2026-04-27 13:33 43.71929 10.38831 9690 ft 286 kts 141°
2026-04-27 13:34 43.70380 10.40528 9428 ft 283 kts 141°
2026-04-27 13:34 43.68843 10.42209 9166 ft 281 kts 141°
2026-04-27 13:34 43.67318 10.43874 8915 ft 278 kts 142°
2026-04-27 13:34 43.65810 10.45530 8676 ft 275 kts 139°
2026-04-27 13:35 43.64698 10.47569 8649 ft 262 kts 110°
2026-04-27 13:35 43.64444 10.49976 8635 ft 249 kts 83°
2026-04-27 13:35 43.64917 10.52203 8621 ft 237 kts 63°
2026-04-27 13:35 43.65846 10.54002 8605 ft 232 kts 42°
2026-04-27 13:36 43.67097 10.55423 8576 ft 237 kts 37°
2026-04-27 13:36 43.68453 10.56811 8300 ft 244 kts 36°
2026-04-27 13:36 43.69820 10.58196 8044 ft 244 kts 36°
2026-04-27 13:36 43.71186 10.59589 7794 ft 244 kts 36°
2026-04-27 13:37 43.72549 10.60988 7544 ft 244 kts 36°
2026-04-27 13:37 43.73908 10.62394 7305 ft 244 kts 36°
2026-04-27 13:37 43.75266 10.63801 7071 ft 244 kts 36°
2026-04-27 13:37 43.76626 10.65213 6827 ft 244 kts 36°
2026-04-27 13:38 43.78015 10.66567 6584 ft 244 kts 25°
2026-04-27 13:38 43.79660 10.66998 6229 ft 244 kts 350°
2026-04-27 13:38 43.81207 10.66115 5944 ft 242 kts 322°
2026-04-27 13:38 43.82434 10.64529 5684 ft 241 kts 313°
2026-04-27 13:39 43.83571 10.62813 5417 ft 242 kts 312°
2026-04-27 13:39 43.84708 10.61093 5163 ft 242 kts 312°
2026-04-27 13:39 43.85844 10.59372 4900 ft 242 kts 309°
2026-04-27 13:39 43.86563 10.57311 4611 ft 238 kts 276°
2026-04-27 13:40 43.86235 10.55151 4373 ft 229 kts 237°
2026-04-27 13:40 43.85039 10.53797 4143 ft 221 kts 206°
2026-04-27 13:40 43.83830 10.52612 3887 ft 207 kts 234°
2026-04-27 13:40 43.83118 10.50980 3640 ft 196 kts 233°
2026-04-27 13:41 43.82093 10.49762 3255 ft 194 kts 213°
2026-04-27 13:41 43.80971 10.48831 2998 ft 181 kts 213°
2026-04-27 13:41 43.79921 10.47970 2808 ft 170 kts 211°
2026-04-27 13:41 43.78891 10.47184 2515 ft 168 kts 210°
2026-04-27 13:42 43.77850 10.46439 2230 ft 168 kts 208°
2026-04-27 13:42 43.76812 10.45724 1947 ft 163 kts 208°
2026-04-27 13:42 43.75808 10.45052 1694 ft 158 kts 207°
2026-04-27 13:42 43.74808 10.44406 1505 ft 162 kts 207°
2026-04-27 13:43 43.73786 10.43754 1237 ft 159 kts 208°
2026-04-27 13:43 43.72817 10.43142 1013 ft 148 kts 207°
2026-04-27 13:43 43.71898 10.42544 791 ft 146 kts 207°
2026-04-27 13:43 43.70991 10.41954 563 ft 143 kts 211°
2026-04-27 13:44 43.70146 10.41262 302 ft 142 kts 216°
2026-04-27 13:44 43.69362 10.40448 84 ft 139 kts 220°
2026-04-27 13:44 43.68636 10.39696 17 ft 110 kts 217°
2026-04-27 13:44 43.68217 10.39262 17 ft 43 kts 217°
2026-04-27 13:45 43.68133 10.39138 15 ft 11 kts 275°
2026-04-27 13:45 43.68176 10.39050 14 ft 11 kts 308°
2026-04-27 13:45 43.68225 10.38972 13 ft 10 kts 329°
2026-04-27 13:45 43.68286 10.39000 14 ft 10 kts 37°
2026-04-27 13:46 43.68338 10.39055 16 ft 9 kts 37°
2026-04-27 13:46 43.68395 10.39115 15 ft 12 kts 37°
2026-04-27 13:46 43.68481 10.39205 16 ft 19 kts 37°
2026-04-27 13:46 43.68598 10.39326 17 ft 22 kts 37°
2026-04-27 13:47 43.68725 10.39456 18 ft 22 kts 37°
2026-04-27 13:47 43.68849 10.39583 16 ft 22 kts 37°
2026-04-27 13:47 43.68968 10.39706 18 ft 21 kts 37°
2026-04-27 13:47 43.69084 10.39826 19 ft 20 kts 37°
2026-04-27 13:48 43.69193 10.39917 21 ft 15 kts 10°
2026-04-27 13:48 43.69294 10.39906 17 ft 16 kts 353°
2026-04-27 13:48 43.69405 10.39890 15 ft 15 kts
2026-04-27 13:48 43.69504 10.39911 14 ft 14 kts 10°
2026-04-27 13:49 43.69598 10.39933 14 ft 13 kts
2026-04-27 13:49 43.69681 10.39964 15 ft 10 kts 49°
2026-04-27 13:49 43.69699 10.40018 14 ft 5 kts 34°
2026-04-27 13:49 43.69732 10.40028 14 ft 5 kts
2026-04-27 13:50 43.69748 10.40031 14 ft 0 kts